Owensboro, KY

1:02 AM CDT on September 23, 2017 (GMT -0500)
Owensboro-Daviess County

Weather History for KOWB - March, 2013

Change the Weather History Date:

Saturday, March 30, 2013

  Actual Average Record
Temperature  
Mean Temperature 47 °F -  
Max Temperature 59 °F 63 °F 82 °F (2012)
Min Temperature 35 °F 41 °F 21 °F (1964)
Degree Days  
Heating Degree Days 18    
Moisture  
Dew Point 44 °F    
Average Humidity 93    
Maximum Humidity 100    
Minimum Humidity 57    
Precipitation  
Precipitation 0.20 in - - ()
Sea Level Pressure  
Sea Level Pressure 30.13 in    
Wind  
Wind Speed 3 mph (SSE)    
Max Wind Speed 13 mph    
Max Gust Speed -    
Visibility 4 miles    
Events Fog , Rain , Snow    
Averages and records for this station are not official NWS values.
T = Trace of Precipitation, MM = Missing Value Source: NWS Daily Summary

Daily Weather History Graph

Daily Weather History Graph

Search for Another Location

Airport or City:

Trip Planner

Search our weather history database for the weather conditions in past years. The results will help you decide how hot, cold, wet, or windy it might be!

Date:

Astronomy

Mar. 30, 2013 Rise Set
Actual Time 6:36 AM CDT 7:09 PM CDT
Civil Twilight 6:10 AM CDT 7:36 PM CDT
Nautical Twilight 5:39 AM CDT 8:07 PM CDT
Astronomical Twilight 5:07 AM CDT 8:39 PM CDT
Moon 11:11 PM CDT (3/30) 8:35 AM CDT (3/30)
Length of Visible Light 13h 26m
Length of Day
12h 33m
Waning Gibbous, 86% of the Moon is Illuminated
Mar 30
Waning Gibbous
Apr 2
Last Quarter
Apr 10
New
Apr 18
First Quarter
Apr 25
Full

Hourly Weather History & Observations

Time (CDT) Temp. Windchill Dew Point Humidity Pressure Visibility Wind Dir Wind Speed Gust Speed Precip Events Conditions
12:34 AM 44.6 °F 43.1 °F 42.8 °F 93% 30.23 in 2.5 mi East 3.5 mph - N/A   Clear
12:56 AM 43.9 °F 42.3 °F 43.9 °F 100% 30.23 in 1.5 mi ENE 3.5 mph - N/A   Clear
1:24 AM 44.6 °F - 44.6 °F 100% 30.22 in 3.0 mi Calm Calm - N/A   Clear
1:40 AM 44.6 °F - 44.6 °F 100% 30.22 in 1.8 mi Calm Calm - N/A   Clear
1:42 AM 44.6 °F - 44.6 °F 100% 30.22 in 0.8 mi Calm Calm - N/A   Clear
1:45 AM 44.6 °F - 44.6 °F 100% 30.22 in 0.2 mi Calm Calm - N/A Fog Fog
1:56 AM 43.0 °F - 43.0 °F 100% 30.23 in 0.2 mi Calm Calm - N/A Fog Fog
2:16 AM 35.6 °F - 35.6 °F 100% 30.23 in 0.2 mi Calm Calm - N/A Fog Fog
2:56 AM 36.9 °F - 36.9 °F 100% 30.23 in 0.2 mi Calm Calm - N/A Fog Fog
3:56 AM 37.9 °F - 37.9 °F 100% 30.22 in 0.2 mi Calm Calm - N/A Fog Fog
4:43 AM 37.4 °F - 37.4 °F 100% 30.22 in 0.2 mi Calm Calm - 0.00 in Fog , Rain Light Rain
4:56 AM 37.9 °F - 37.9 °F 100% 30.23 in 0.2 mi Calm Calm - 0.00 in Fog Fog
5:05 AM 37.4 °F - 37.4 °F 100% 30.22 in 0.8 mi Calm Calm - 0.00 in Rain Light Rain
5:24 AM 37.4 °F - 37.4 °F 100% 30.22 in 0.2 mi Calm Calm - 0.00 in Fog , Snow Light Snow
5:48 AM 37.4 °F - 37.4 °F 100% 30.23 in 0.2 mi Calm Calm - 0.00 in Fog , Snow Light Snow
5:56 AM 36.9 °F - 36.9 °F 100% 30.23 in 0.2 mi Calm Calm - 0.00 in Fog Fog
6:56 AM 36.9 °F 32.2 °F 36.9 °F 100% 30.22 in 0.2 mi ENE 5.8 mph - N/A Fog Fog
7:56 AM 37.9 °F - 37.9 °F 100% 30.22 in 0.2 mi Calm Calm - N/A Fog Fog
8:56 AM 39.9 °F 36.7 °F 39.9 °F 100% 30.22 in 0.2 mi SE 4.6 mph - N/A Fog Fog
9:38 AM 44.6 °F 41.4 °F 44.6 °F 100% 30.20 in 1.0 mi SE 5.8 mph - N/A   Overcast
9:56 AM 43.9 °F 41.3 °F 43.9 °F 100% 30.21 in 2.0 mi SE 4.6 mph - N/A   Overcast
9:58 AM 44.6 °F - 44.6 °F 100% 30.20 in 2.0 mi Calm Calm - N/A   Mostly Cloudy
10:06 AM 44.6 °F 40.7 °F 44.6 °F 100% 30.20 in 5.0 mi SSE 6.9 mph - N/A   Mostly Cloudy
10:18 AM 46.4 °F 42.9 °F 46.4 °F 100% 30.19 in 5.0 mi SE 6.9 mph - N/A   Scattered Clouds
10:22 AM 46.4 °F 42.4 °F 46.4 °F 100% 30.19 in 5.0 mi ESE 8.1 mph - N/A   Mostly Cloudy
10:56 AM 50.0 °F - 46.9 °F 89% 30.19 in 7.0 mi SSE 12.7 mph - N/A   Scattered Clouds
11:56 AM 52.9 °F - 45.0 °F 74% 30.16 in 10.0 mi SE 10.4 mph - N/A   Partly Cloudy
12:56 PM 54.9 °F - 45.0 °F 69% 30.13 in 10.0 mi Variable 3.5 mph - N/A   Clear
1:56 PM 56.8 °F - 45.0 °F 64% 30.10 in 10.0 mi South 9.2 mph - N/A   Partly Cloudy
2:56 PM 59.0 °F - 43.9 °F 57% 30.07 in 10.0 mi South 9.2 mph - N/A   Clear
3:56 PM 57.9 °F - 43.9 °F 60% 30.05 in 10.0 mi South 8.1 mph - N/A   Clear
4:56 PM 56.8 °F - 45.9 °F 67% 30.03 in 10.0 mi SSW 11.5 mph - N/A   Clear
5:56 PM 55.9 °F - 46.9 °F 72% 30.02 in 10.0 mi SSW 8.1 mph - N/A   Clear
6:56 PM 52.9 °F - 46.9 °F 80% 30.00 in 10.0 mi South 4.6 mph - N/A   Clear
7:56 PM 52.0 °F - 46.9 °F 83% 29.99 in 10.0 mi South 5.8 mph - N/A   Clear
8:56 PM 50.9 °F - 48.9 °F 93% 29.97 in 6.0 mi South 6.9 mph - 0.01 in Rain Light Rain
9:23 PM 50.0 °F - 48.2 °F 94% 29.97 in 4.0 mi South 4.6 mph - 0.03 in Rain Light Rain
9:56 PM 50.0 °F - 50.0 °F 100% 29.97 in 3.0 mi SSW 3.5 mph - 0.06 in Rain Rain
10:23 PM 50.0 °F - 50.0 °F 100% 29.96 in 2.5 mi Calm Calm - 0.06 in Rain Rain
10:56 PM 50.0 °F - 50.0 °F 100% 29.94 in 2.5 mi Calm Calm - 0.10 in Rain Light Rain
11:07 PM 50.0 °F - 50.0 °F 100% 29.94 in 2.5 mi Calm Calm - 0.00 in Rain Light Rain
11:28 PM 50.0 °F - 50.0 °F 100% 29.92 in 3.0 mi Calm Calm - 0.01 in Rain Light Rain
11:47 PM 50.0 °F - 50.0 °F 100% 29.92 in 2.5 mi Calm Calm - 0.02 in Rain Light Rain
11:56 PM 50.0 °F - 50.0 °F 100% 29.91 in 1.8 mi Calm Calm - 0.03 in Rain Rain